Watertown, SD

1:59 AM CDT on September 27, 2016 (GMT -0500)
Watertown Municipal

Weather History for KATY - March, 2012

Change the Weather History Date:

Saturday, March 3, 2012

  Actual Average Record
Temperature  
Mean Temperature 15 °F 24 °F  
Max Temperature 20 °F 33 °F 62 °F (2000)
Min Temperature 10 °F 15 °F -20 °F (1916)
Degree Days  
Heating Degree Days 50 41  
Month to date heating degree days 136 125  
Since 1 July heating degree days 5645 6536  
Cooling Degree Days 0 0  
Month to date cooling degree days 0 0  
Year to date cooling degree days 0 0  
Moisture  
Dew Point 12 °F    
Average Humidity 83    
Maximum Humidity 92    
Minimum Humidity 73    
Precipitation  
Precipitation 0.00 in 0.02 in 1.15 in (1985)
Month to date precipitation T 0.08  
Year to date precipitation 1.17 1.16  
Snow  
Snow 0.00 in - - ()
Month to date snowfall T  
Since 1 July snowfall 18.2  
Snow Depth 5.00 in    
Sea Level Pressure  
Sea Level Pressure 29.90 in    
Wind  
Wind Speed 14 mph (NW)    
Max Wind Speed 29 mph    
Max Gust Speed 36 mph    
Visibility 9 miles    
Events      
T = Trace of Precipitation, MM = Missing Value Source: NWS Daily Summary

Daily Weather History Graph

Daily Weather History Graph

Search for Another Location

Airport or City:

Trip Planner

Search our weather history database for the weather conditions in past years. The results will help you decide how hot, cold, wet, or windy it might be!

Date:

Astronomy

Mar. 03, 2012 Rise Set
Actual Time 7:01 AM CST 6:19 PM CST
Civil Twilight 6:32 AM CST 6:48 PM CST
Nautical Twilight 5:58 AM CST 7:22 PM CST
Astronomical Twilight 5:24 AM CST 7:56 PM CST
Moon 1:20 PM CST (3/3) 3:51 AM CST (3/3)
Length of Visible Light 12h 16m
Length of Day
11h 17m
Waxing Gibbous, 75% of the Moon is Illuminated
Mar 3
Waxing Gibbous
Mar 8
Full
Mar 14
Last Quarter
Mar 22
New
Mar 30
First Quarter

Hourly Weather History & Observations

Time (CST) Temp. Windchill Dew Point Humidity Pressure Visibility Wind Dir Wind Speed Gust Speed Precip Events Conditions
12:34 AM 19.4 °F 1.4 °F 15.8 °F 86% 29.74 in 6.0 mi NW 26.5 mph 33.4 mph N/A   Overcast
12:53 AM 19.9 °F 3.2 °F 16.0 °F 85% 29.82 in 10.0 mi NW 23.0 mph - N/A   Overcast
1:53 AM 19.9 °F 3.2 °F 16.0 °F 85% 29.82 in 10.0 mi NW 23.0 mph 27.6 mph N/A   Overcast
2:53 AM 19.4 °F 2.1 °F 15.8 °F 86% 29.75 in 10.0 mi NW 24.2 mph 29.9 mph N/A   Overcast
3:53 AM 18.0 °F 1.3 °F 14.0 °F 84% 29.84 in 7.0 mi NNW 20.7 mph 28.8 mph N/A   Overcast
4:53 AM 17.1 °F 0.1 °F 12.9 °F 84% 29.86 in 10.0 mi NNW 20.7 mph 29.9 mph N/A   Overcast
5:53 AM 15.8 °F -1.1 °F 12.2 °F 86% 29.80 in 10.0 mi NW 19.6 mph 29.9 mph N/A   Overcast
6:53 AM 14.0 °F -3.0 °F 10.9 °F 88% 29.89 in 10.0 mi NW 18.4 mph - N/A   Mostly Cloudy
7:53 AM 12.9 °F -3.4 °F 10.0 °F 88% 29.92 in 7.0 mi NW 16.1 mph - N/A   Mostly Cloudy
8:45 AM 14.0 °F -2.0 °F 10.4 °F 86% 29.84 in 10.0 mi NW 16.1 mph - N/A   Scattered Clouds
8:53 AM 14.0 °F -2.0 °F 10.0 °F 84% 29.93 in 9.0 mi NW 16.1 mph - N/A   Partly Cloudy
9:53 AM 15.1 °F -2.9 °F 10.0 °F 80% 29.94 in 10.0 mi NW 21.9 mph - N/A   Clear
10:53 AM 17.1 °F 0.6 °F 10.9 °F 77% 29.95 in 10.0 mi NNW 19.6 mph - N/A   Clear
11:53 AM 18.0 °F 3.1 °F 12.0 °F 78% 29.96 in 10.0 mi NW 16.1 mph - N/A   Partly Cloudy
12:21 PM 17.6 °F 3.2 °F 12.2 °F 79% 29.87 in 10.0 mi NW 15.0 mph - N/A   Mostly Cloudy
12:53 PM 19.0 °F 5.6 °F 12.9 °F 77% 29.96 in 10.0 mi NW 13.8 mph - N/A   Overcast
1:53 PM 19.0 °F 5.6 °F 12.9 °F 77% 29.94 in 4.0 mi WNW 13.8 mph - N/A   Haze
2:53 PM 19.0 °F 4.5 °F 12.9 °F 77% 29.95 in 9.0 mi NW 16.1 mph - N/A   Overcast
3:53 PM 19.0 °F 6.8 °F 12.9 °F 77% 29.95 in 8.0 mi WNW 11.5 mph - N/A   Overcast
4:05 PM 19.4 °F 7.2 °F 14.0 °F 80% 29.87 in 9.0 mi WNW 11.5 mph - N/A   Overcast
4:53 PM 19.0 °F 5.6 °F 12.9 °F 77% 29.96 in 10.0 mi WNW 13.8 mph - N/A   Overcast
5:53 PM 19.0 °F 10.0 °F 12.9 °F 77% 29.96 in 7.0 mi WNW 6.9 mph - N/A   Overcast
6:53 PM 19.0 °F 8.2 °F 12.9 °F 77% 29.96 in 10.0 mi WNW 9.2 mph - N/A   Overcast
7:53 PM 18.0 °F 9.8 °F 12.9 °F 81% 29.95 in 10.0 mi WNW 5.8 mph - N/A   Overcast
8:00 PM 17.6 °F 9.3 °F 12.2 °F 79% 29.85 in 10.0 mi WNW 5.8 mph - N/A   Overcast
8:53 PM 18.0 °F 11.1 °F 12.9 °F 81% 29.94 in 10.0 mi WNW 4.6 mph - N/A   Overcast
9:53 PM 16.0 °F 7.4 °F 12.0 °F 84% 29.95 in 10.0 mi West 5.8 mph - N/A   Overcast
10:15 PM 15.8 °F - 10.4 °F 79% 29.84 in 10.0 mi Calm Calm - N/A   Scattered Clouds
10:53 PM 12.9 °F - 10.0 °F 88% 29.93 in 10.0 mi Calm Calm - N/A   Clear
11:53 PM 10.9 °F 1.4 °F 9.0 °F 92% 29.94 in 7.0 mi WSW 5.8 mph - N/A   Scattered Clouds